Regional Weather Roundup
Issued by NWS

Home | Current Version | Previous Version | Graphics & Text | Print | Product List | Glossary On
Versions: 1 2 3 4 5 6 7 8 9 10 11 12 13 14 15 16 17 18 19 20 21 22 23 24 25 26 27 28 29 30 31 32 33 34 35 36 37 38 39 40 41 42 43 44 45 46 47 48 49 50
000
ASUS45 KCYS 301610
RWRWY

WYOMING REGIONAL WEATHER ROUNDUP
NATIONAL WEATHER SERVICE CHEYENNE WY
1000 AM MDT SUN APR 30 2017

NOTE:  "FAIR" INDICATES FEW OR NO CLOUDS BELOW 12,000 FEET
WITH NO SIGNIFICANT WEATHER AND/OR OBSTRUCTIONS TO VISIBILITY.

WYZ001-301700-
YELLOWSTONE NATIONAL PARK

CITY           SKY/WX    TMP DP  RH WIND       PRES   REMARKS
LK YELLOWSTONE   N/A     34  19  54 MISG      30.12F
W YELLOWSTONE  NOT AVBL

$$
WYZ002>013-054>058-071-098>099-301700-
NORTHERN WYOMING

CITY           SKY/WX    TMP DP  RH WIND       PRES   REMARKS
JACKSON        SUNNY     39  28  65 SE5       30.13F
CODY           FAIR      48  29  47 VRB6      30.01F
GREYBULL       FAIR      48  26  42 S8        30.03F
WORLAND        FAIR      49  27  42 SE7       30.03F
SHERIDAN       FAIR      43  31  62 SE3       29.99F
BUFFALO        FAIR      46  22  38 W3        30.00F
GILLETTE       FAIR      38  29  70 SW7       29.98F WCI  33
HULETT         FAIR      46  19  34 W3        29.99F
NEWCASTLE      FAIR      46  19  34 NW6       30.00F

$$
WYZ014>020-022>026-101>103-301700-
CENTRAL WYOMING

CITY           SKY/WX    TMP DP  RH WIND       PRES   REMARKS
BIG PINEY      FAIR      39  22  50 SW5       30.14F
PINEDALE       FAIR      37  23  56 NW7       30.13F WCI  32
DUBOIS         FAIR      43  16  33 NW18G29   30.05F
LANDER         FAIR      39  25  57 SE3       30.04F
RIVERTON       FAIR      38  24  57 CALM      30.06F
CASPER         FAIR      44  25  47 W18       30.03F
DOUGLAS        FAIR      46  25  43 W17       30.01F

$$
WYZ021-027>030-104>119-301700-
SOUTHERN WYOMING

CITY           SKY/WX    TMP DP  RH WIND       PRES   REMARKS
EVANSTON       FAIR      39  26  59 SW13      30.17F WCI  31
KEMMERER         N/A     36  27  69 W9        30.17S WCI  29
FORT BRIDGER   FAIR      43  26  50 W14G22    30.19F
ROCK SPRINGS   FAIR      42  23  46 W15       30.13F
DIXON            N/A     36  23  57 W3        30.16F
RAWLINS        FAIR      37  25  61 W17       30.09F WCI  27
SARATOGA       FAIR      36  21  55 SE5       30.11F WCI  32
LARAMIE        FAIR      34  19  54 VRB5      30.03F WCI  30
CHEYENNE       FAIR      41  16  36 N30G40    29.96F
TORRINGTON     FAIR      48  20  32 N15G24    30.00R
PINE BLUFFS    FAIR      41  21  45 N23G30    29.99S

$$



USA.gov is the U.S. government's official web portal to all federal, state and local government web resources and services.